Tracking 19909 objects as of 21-Oct-2019
HD Live streaming from Space Station
objects crossing your sky now

COSMOS 1375 DEB

Track COSMOS 1375 DEB now!
10-day predictions


NORAD ID: 19453
Int'l Code: 1982-055BL
Perigee: 757.9 km
Apogee: 851.5 km
Inclination: 65.8 °
Period: 100.8 minutes
Semi major axis: 7175 km
RCS: 0.0034 m2 (small)
Launch date: June 6, 1982
Source: Commonwealth of Independent States (former USSR) (CIS)
Launch site: PLESETSK MISSILE AND SPACE COMPLEX (PKMTR)

Note: This is SATELLITE DEBRIS
aabbcc
Your satellite tracking list
Your tracking list is empty




NASA's NSSDC Master Catalog

Two Line Element Set (TLE):
1 19453U 82055BL  19294.48933156  .00000428  00000-0  20381-3 0  9997
2 19453  65.8067  99.1185 0065227 300.9192  92.1834 14.28257378624191
Source of the keplerian elements: AFSPC